Regional Weather Roundup
Issued by NWS

Home | Current Version | Previous Version | Text Only | Print | Product List | Glossary On
Versions: 1 2 3 4 5 6 7 8 9 10 11 12 13 14 15 16 17 18 19 20 21 22 23 24 25 26 27 28 29 30 31 32 33 34 35 36 37 38 39 40 41 42 43 44 45 46 47 48 49 50
179
ASUS44 KBMX 011210
RWRAL

ALABAMA REGIONAL WEATHER ROUNDUP
NATIONAL WEATHER SERVICE BIRMINGHAM AL
700 AM CDT SUN MAY 01 2016

NOTE: "FAIR" INDICATES FEW OR NO CLOUDS BELOW 12,000 FEET
WITH NO SIGNIFICANT WEATHER AND/OR OBSTRUCTIONS TO VISIBILITY.

THE REMARK "TC" DENOTES TEMPERATURE IN DEGREES CELSIUS.

ALZ001>011-014-016>018-020-011300-
NORTH ALABAMA

CITY           SKY/WX    TMP DP  RH WIND       PRES   REMARKS
MUSCLE SHOALS  NOT AVBL
HUNTSVILLE     CLOUDY    68  63  84 S5        29.97R
6HR MIN TEMP:  63; 6HR MAX TEMP:  69;

DECATUR        CLOUDY    66  63  90 S8        29.97R
6HR MIN TEMP:  62; 6HR MAX TEMP:  67;

HALEYVILLE     FAIR      64  61  90 S5        29.99R
6HR MIN TEMP:  62; 6HR MAX TEMP:  67;

GADSDEN        SUNNY     65  64  97 CALM      30.00R
6HR MIN TEMP:  61; 6HR MAX TEMP:  67;

$$

ALZ012-013-022-023-030>036-040>044-011300-
WEST CENTRAL ALABAMA

CITY           SKY/WX    TMP DP  RH WIND       PRES   REMARKS
TUSCALOOSA     CLOUDY    67  64  90 E3        29.96S
6HR MIN TEMP:  62; 6HR MAX TEMP:  67;

$$

ALZ015-024>027-033>036-040>044-011300-
CENTRAL ALABAMA

CITY           SKY/WX    TMP DP  RH WIND       PRES   REMARKS
BIRMINGHAM     CLOUDY    70  64  81 SE5       30.00S
6HR MIN TEMP:  66; 6HR MAX TEMP:  70;

MONTGOMERY     SUNNY     73  69  87 SE5       29.97S
6HR MIN TEMP:  70; 6HR MAX TEMP:  74;

SHELBY CO ARPT CLOUDY    68  64  87 CALM      29.98R
6HR MIN TEMP:  65; 6HR MAX TEMP:  69;

MAXWELL AFB    SUNNY     71  69  96 S3        29.97S
6HR MIN TEMP:  68; 6HR MAX TEMP:  71;

GREENVILLE     FAIR      71  69  93 SE5       29.98R FOG
6HR MIN TEMP:  70; 6HR MAX TEMP:  73;

$$

ALZ019-021-028-029-037-038-045>048-011300-
EAST CENTRAL ALABAMA

CITY           SKY/WX    TMP DP  RH WIND       PRES   REMARKS
ANNISTON       PTSUNNY   69  65  86 CALM      30.00R
6HR MIN TEMP:  64; 6HR MAX TEMP:  69;

ALEXANDER CITY MOSUNNY   67  67 100 CALM      30.00S FOG
6HR MIN TEMP:  63; 6HR MAX TEMP:  73;

AUBURN         SUNNY     69  66  90 CALM      30.03R
6HR MIN TEMP:  66; 6HR MAX TEMP:  73;

$$

ALZ051>064-011300-
SOUTHWEST ALABAMA

CITY           SKY/WX    TMP DP  RH WIND       PRES   REMARKS
MOBILE         CLOUDY    73  73 100 SE5       29.95R FOG
6HR MIN TEMP:  68; 6HR MAX TEMP:  73;

BROOKLEY FIELD MOCLDY    74  74 100 E6        29.96R
6HR MIN TEMP:  73; 6HR MAX TEMP:  75;

EVERGREEN      CLOUDY    69  67  93 CALM      29.98R
6HR MIN TEMP:  67; 6HR MAX TEMP:  69;

$$

ALZ049-050-065>069-011300-
SOUTHEAST ALABAMA

CITY           SKY/WX    TMP DP  RH WIND       PRES   REMARKS
DOTHAN         PTSUNNY   71  69  93 E5        30.04R
6HR MIN TEMP:  65; 6HR MAX TEMP:  73;

OZARK          CLOUDY    70  70 100 E5        29.99R
6HR MIN TEMP:  69; 6HR MAX TEMP:  74;

TROY           MOSUNNY   71  68  90 E3        30.00S FOG
6HR MIN TEMP:  69; 6HR MAX TEMP:  75;

EUFAULA        FAIR      69  66  90 CALM      30.00R
6HR MIN TEMP:  64; 6HR MAX TEMP:  75;

$$




USA.gov is the U.S. government's official web portal to all federal, state and local government web resources and services.